Time,TemperatureF,DewpointF,PressureIn,WindDirection,WindDirectionDegrees,WindSpeedMPH,WindSpeedGustMPH,Humidity,HourlyPrecipIn,Conditions,Clouds,dailyrainin,SoftwareType,DateUTC
2013-01-03 09:22:00,16.0,12.0,-100.00,West,260,4.0,10.0,85,-99.99,,,-99.99,,2013-01-03 15:22:00,
2013-01-03 09:33:00,16.0,12.0,-100.00,West,260,4.0,10.0,85,-99.99,,,-99.99,,2013-01-03 15:33:00,
2013-01-03 09:43:00,16.0,12.0,-100.00,West,260,4.0,10.0,85,-99.99,,,-99.99,,2013-01-03 15:43:00,
2013-01-03 09:53:00,16.0,12.0,-100.00,West,260,4.0,10.0,85,-99.99,,,-99.99,,2013-01-03 15:53:00,
2013-01-03 11:23:00,16.0,10.0,-100.00,SW,230,6.0,12.0,76,-99.99,,,-99.99,,2013-01-03 17:23:00,
2013-01-03 11:33:00,16.0,10.0,-100.00,SW,230,6.0,12.0,76,-99.99,,,-99.99,,2013-01-03 17:33:00,
2013-01-03 11:43:00,16.0,10.0,-100.00,SW,230,6.0,12.0,76,-99.99,,,-99.99,,2013-01-03 17:43:00,
2013-01-03 11:52:00,16.0,10.0,-100.00,SW,230,6.0,12.0,76,-99.99,,,-99.99,,2013-01-03 17:52:00,
2013-01-03 15:22:00,17.0,6.0,-100.00,WSW,240,0.0,0.0,61,-99.99,,,-99.99,,2013-01-03 21:22:00,
2013-01-03 15:36:00,17.0,6.0,-100.00,WSW,240,0.0,0.0,61,-99.99,,,-99.99,,2013-01-03 21:36:00,
2013-01-03 15:48:00,17.0,6.0,-100.00,WSW,240,0.0,0.0,61,-99.99,,,-99.99,,2013-01-03 21:48:00,
2013-01-03 19:01:00,10.0,2.0,-100.00,SW,215,0.0,0.0,71,-99.99,,,-99.99,,2013-01-04 01:01:00,
2013-01-03 19:22:00,10.0,2.0,-100.00,SW,215,0.0,0.0,71,-99.99,,,-99.99,,2013-01-04 01:22:00,
2013-01-03 19:33:00,10.0,2.0,-100.00,SW,215,0.0,0.0,71,-99.99,,,-99.99,,2013-01-04 01:33:00,
2013-01-03 19:42:00,10.0,2.0,-100.00,SW,215,0.0,0.0,71,-99.99,,,-99.99,,2013-01-04 01:42:00,
2013-01-03 19:52:00,10.0,2.0,-100.00,SW,215,0.0,0.0,71,-99.99,,,-99.99,,2013-01-04 01:52:00,
2013-01-03 21:22:00,10.0,5.0,-100.00,WSW,245,0.0,0.0,82,-99.99,,,-99.99,,2013-01-04 03:22:00,
2013-01-03 21:32:00,10.0,5.0,-100.00,WSW,245,0.0,0.0,82,-99.99,,,-99.99,,2013-01-04 03:32:00,
2013-01-03 21:42:00,10.0,5.0,-100.00,WSW,245,0.0,0.0,82,-99.99,,,-99.99,,2013-01-04 03:42:00,
2013-01-03 21:52:00,10.0,5.0,-100.00,WSW,245,0.0,0.0,82,-99.99,,,-99.99,,2013-01-04 03:52:00,
2013-01-03 23:22:00,9.0,7.0,-100.00,SSW,195,0.0,0.0,90,-99.99,,,-99.99,,2013-01-04 05:22:00,
2013-01-03 23:33:00,9.0,7.0,-100.00,SSW,195,0.0,0.0,90,-99.99,,,-99.99,,2013-01-04 05:33:00,
2013-01-03 23:42:00,9.0,7.0,-100.00,SSW,195,0.0,0.0,90,-99.99,,,-99.99,,2013-01-04 05:42:00,
2013-01-03 23:52:00,9.0,7.0,-100.00,SSW,195,0.0,0.0,90,-99.99,,,-99.99,,2013-01-04 05:52:00,